This demonstration page uses our WeatherBlox Daily Observations layout. Learn more.

38.88101, -77.10428

Hourly Observations for August 13, 2018

Temp ( °F °C ) Dew Point ( °F °C ) Humidity (%) Winds ( mph kmh ) Pressure ( in mb ) Visibility ( mi km ) Precip ( " mm )
12:52 am 00:52 Cloudy 75 23.9 71 21.7 88 88 N 6 9 30.03 1017 10 16.0934 0 0
1:52 am 01:52 Cloudy 75 23.9 70 21.1 84 84 NW 5 7 30.01 1016 10 16.0934 0 0
2:52 am 02:52 Cloudy 74 23.3 70 21.1 88 88 NNW 5 7 29.99 1016 10 16.0934 0 0
3:52 am 03:52 Cloudy 75 23.9 70 21.1 84 84 NNW 3 6 29.99 1016 10 16.0934 0 0
4:52 am 04:52 Cloudy 74 23.3 69 20.6 85 85 NNW 6 9 30 1016 10 16.0934 0 0
5:39 am 05:39 Cloudy 74 23.3 70 21.1 88 88 NNW 6 9 30 1016 10 16.0934 0 0
5:52 am 05:52 Cloudy 74 23.3 70 21.1 88 88 NNW 5 7 29.99 1016 10 16.0934 0 0
6:28 am 06:28 Mostly Cloudy 75 23.9 70 21.1 84 84 NNE 6 9 30 1016 10 16.0934 0 0
6:52 am 06:52 Partly Cloudy 74 23.3 69 20.6 85 85 NW 5 7 29.99 1016 10 16.0934 0 0
7:52 am 07:52 Mostly Cloudy 74 23.3 69 20.6 85 85 N 7 11 29.99 1016 7 11.26538 0 0
8:52 am 08:52 Mostly Cloudy 77 25 69 20.6 77 77 N 9 15 29.99 1016 7 11.26538 0 0
9:52 am 09:52 Partly Cloudy 80 26.7 71 21.7 74 74 N 7 11 30 1016 10 16.0934 0 0
10:52 am 10:52 Cloudy 80 26.7 70 21.1 71 71 NW 8 13 30 1016 10 16.0934 0 0
11:52 am 11:52 Mostly Cloudy 83 28.3 70 21.1 65 65 WNW 8 13 29.99 1016 10 16.0934 0 0
12:52 pm 12:52 Partly Cloudy 84 28.9 69 20.6 61 61 VRB 6 9 29.97 1015 10 16.0934 0 0
1:52 pm 13:52 Mostly Cloudy 85 29.4 69 20.6 59 59 ENE 5 7 29.96 1014 10 16.0934 0 0
2:52 pm 14:52 Partly Cloudy 86 30 69 20.6 57 57 E 3 6 29.93 1014 10 16.0934 0 0
3:52 pm 15:52 Mostly Cloudy 85 29.4 69 20.6 59 59 S 8 13 29.9 1013 10 16.0934 0 0
4:37 pm 16:37 Mostly Cloudy with Thunderstorms 84 28.9 68 20 59 59 SSW 17 28 29.91 1013 10 16.0934 0 0
4:44 pm 16:44 Cloudy with Thunderstorms 78 25.6 66 18.9 67 67 W 39 63 29.91 1013 10 16.0934 0 0
4:47 pm 16:47 Windy with Storms Likely 75 24 64 18 69 69 WNW 28 44 29.94 1014 9 14.48406 0 0.0254
4:52 pm 16:52 Cloudy with Light Thunderstorms 75 23.9 62 16.7 64 64 W 18 30 29.91 1013 10 16.0934 0 0.0254
4:56 pm 16:56 Mostly Cloudy with Light Thunderstorms 76 24.4 62 16.7 62 62 W 14 22 29.91 1013 10 16.0934 0 0.0254
5:02 pm 17:02 Mostly Cloudy with Light Rain 79 26.1 61 16.1 54 54 WNW 12 19 29.91 1013 10 16.0934 0 0.0254
5:52 pm 17:52 Mostly Cloudy 79 26.1 68 20 69 69 WSW 9 15 29.91 1013 10 16.0934 0 0.0254
6:33 pm 18:33 Mostly Cloudy with Nearby Thunderstorms 80 26.7 68 20 67 67 N 7 11 29.91 1013 10 16.0934 0 0
6:52 pm 18:52 Mostly Cloudy with Nearby Thunderstorms 78 25.6 67 19.4 69 69 N 9 15 29.92 1013 10 16.0934 0 0
6:57 pm 18:57 Mostly Cloudy 78 25.6 67 19.4 69 69 N 8 13 29.94 1014 10 16.0934 0 0
7:52 pm 19:52 Mostly Cloudy 77 25 65 18.3 66 66 W 7 11 29.93 1014 10 16.0934 0 0
8:52 pm 20:52 Mostly Cloudy 76 24.4 67 19.4 74 74 NW 5 7 29.94 1014 10 16.0934 0 0
9:52 pm 21:52 Mostly Cloudy 75 23.9 68 20 79 79 SW 9 15 29.94 1014 10 16.0934 0 0
10:52 pm 22:52 Mostly Cloudy 74 23.3 67 19.4 79 79 WSW 7 11 29.93 1014 10 16.0934 0 0
11:52 pm 23:52 Cloudy 73 22.8 66 18.9 79 79 WSW 7 11 29.93 1014 10 16.0934 0 0

Powered by AerisWeather